ECMWFFLT1_700_spd_096.txt.gz
Wind_Speed
28 29 31 32 33 35 35 34 32 31 29 27 24 21 21 22 22 21 19 18 17 18 18 17 17 18 18 18 18 18 18 17 15 14 13 13 13 12 12 11 9 8 8 8 9 9 8 8 8 8 8 8 7 8 8 7 7 6 6 6 7 7 7
27 28 29 30 31 33 34 34 33 32 31 31 28 23 21 22 23 23 21 19 18 17 17 18 17 18 18 18 18 19 19 19 17 16 15 14 13 12 12 11 11 9 9 9 9 9 9 8 8 8 8 8 8 8 8 7 7 6 6 7 7 7 7
26 27 27 27 29 31 32 34 34 33 33 33 31 26 23 22 23 25 24 21 20 19 18 18 18 18 18 18 19 19 20 20 19 18 16 14 13 12 12 11 11 10 9 9 9 9 9 8 8 8 9 9 9 9 8 7 7 6 7 7 6 7 7
25 26 25 25 26 28 30 32 33 33 34 34 33 30 28 24 23 25 24 21 20 21 20 19 19 19 19 19 19 18 19 20 20 19 17 16 15 14 13 12 11 11 10 9 9 9 9 9 8 8 9 9 9 9 8 7 7 7 7 7 6 6 7
25 26 26 26 26 27 29 30 32 34 36 36 37 36 34 30 27 25 23 21 20 22 22 21 20 20 20 20 19 18 18 19 19 19 19 18 17 15 14 13 12 11 10 10 9 9 9 9 9 9 9 9 9 9 8 8 8 7 7 7 6 6 6
26 27 26 27 28 28 30 31 33 37 38 38 39 39 35 30 28 26 25 26 25 25 25 24 23 22 21 21 19 18 18 18 18 19 20 20 19 18 16 15 14 12 11 11 10 10 9 9 9 9 9 9 9 9 8 8 8 7 7 7 6 6 6
27 28 27 28 28 29 30 30 30 31 32 35 35 33 31 28 27 26 26 27 27 27 28 28 26 24 23 22 21 20 19 18 18 19 19 20 20 19 18 17 16 14 13 12 11 11 10 9 9 9 9 10 10 9 9 8 9 8 8 7 6 6 6
28 28 28 28 28 28 29 27 26 26 27 29 28 26 27 28 29 29 28 26 24 24 25 26 26 25 24 23 22 21 20 19 18 19 19 20 20 21 20 19 18 16 15 14 13 12 11 10 10 10 10 10 10 11 10 9 9 9 9 9 8 7 7
30 29 28 28 28 28 27 25 24 26 26 25 23 23 25 28 33 35 32 29 26 25 25 25 26 25 24 23 22 21 21 21 20 20 20 21 20 20 21 20 20 19 17 16 14 14 12 11 12 11 11 11 10 11 11 10 10 10 10 10 9 9 8
29 28 28 28 28 27 26 25 23 24 24 24 23 22 21 24 29 30 29 29 29 29 28 27 27 26 26 25 24 23 23 22 22 21 21 21 20 20 20 20 21 21 19 18 17 16 14 13 13 13 13 12 11 11 11 11 11 11 11 11 11 11 10
24 24 25 24 25 23 22 23 23 23 22 22 21 20 18 20 21 21 24 27 30 32 32 30 29 27 27 27 26 27 26 24 23 22 21 21 21 21 21 20 21 21 21 21 20 18 17 16 15 15 14 13 13 12 12 12 12 12 12 11 12 12 11
21 21 20 18 19 20 18 19 21 21 21 20 18 16 17 19 19 19 21 24 28 31 32 31 30 30 29 28 26 27 26 25 24 23 22 21 20 20 20 21 22 22 23 23 22 21 20 19 18 17 16 15 14 14 13 13 13 13 13 13 13 13 12
21 22 21 18 16 15 15 15 16 18 20 20 19 16 17 19 19 18 18 20 24 28 29 30 31 30 29 27 25 25 24 24 24 24 23 21 20 19 19 20 20 21 22 22 23 23 22 21 20 19 18 17 16 15 15 15 14 14 14 14 14 14 14
24 23 20 17 16 15 15 14 13 15 16 16 17 18 19 20 19 19 19 19 21 25 27 27 26 25 25 25 25 24 24 23 24 25 24 21 20 20 19 19 19 19 20 21 22 22 22 22 22 21 20 19 18 17 17 17 17 16 15 15 15 15 15
26 23 16 12 12 13 15 15 14 14 14 12 12 15 18 19 19 20 21 20 19 21 22 21 21 21 22 23 24 24 24 23 23 24 24 24 23 22 21 21 20 20 19 19 19 20 20 21 21 21 21 21 20 20 20 20 19 18 17 17 16 16 16
23 21 15 10 8 8 11 15 14 13 13 12 10 10 13 17 20 21 20 18 17 17 18 19 20 21 22 23 24 25 24 23 22 22 24 25 26 25 24 23 22 21 20 18 18 18 19 20 20 20 20 20 20 20 21 22 21 20 19 19 18 18 18
21 17 14 11 11 12 12 14 14 13 13 12 10 9 9 12 16 17 14 14 15 17 19 20 20 21 22 23 24 24 23 22 23 23 22 23 24 26 26 26 26 24 21 20 19 18 18 19 20 20 19 18 19 20 21 22 22 22 21 21 21 21 20
20 18 15 12 12 14 14 15 16 15 13 11 11 10 10 10 12 13 12 11 12 14 17 17 19 20 20 20 22 22 21 21 22 23 23 23 23 25 26 28 29 28 25 22 21 20 20 20 20 20 21 20 19 19 20 20 20 21 22 22 23 23 23
17 18 16 13 11 11 12 14 15 15 13 12 11 11 11 10 10 10 10 10 10 11 12 14 16 17 16 17 18 18 17 18 19 21 22 22 23 24 25 27 28 28 27 25 23 23 23 23 22 22 22 22 21 20 19 19 19 20 21 22 23 24 24
15 15 14 13 12 10 10 11 12 13 12 12 11 11 10 10 10 10 10 10 10 9 10 12 15 14 15 16 15 13 13 16 18 20 21 22 22 22 21 23 24 25 26 27 26 26 26 25 25 25 24 23 22 20 19 18 18 19 19 20 21 22 24
13 14 13 12 12 11 11 11 11 11 11 10 10 10 9 9 10 11 12 12 12 12 11 12 14 14 16 17 14 11 12 15 18 20 21 22 21 20 19 20 20 21 22 24 26 27 27 27 27 26 26 25 23 21 20 18 18 18 19 19 20 21 23
15 14 13 13 12 11 11 12 12 11 11 10 9 8 7 7 8 9 11 12 13 14 13 14 14 14 15 15 13 13 15 17 20 21 22 22 22 21 20 20 19 18 19 21 23 25 26 26 26 25 26 26 26 25 24 23 22 21 21 21 21 21 22
16 16 15 14 14 13 12 12 12 12 11 10 9 8 7 7 7 7 7 8 9 10 11 12 13 14 15 14 15 17 20 23 24 24 23 23 23 23 23 23 22 21 20 21 23 24 25 25 24 24 24 25 26 27 27 27 27 25 24 23 22 22 22
16 16 17 16 15 14 13 12 13 12 11 10 10 10 9 8 8 7 7 7 6 7 7 8 9 11 13 14 15 18 21 23 25 26 25 24 23 24 24 24 24 25 24 24 24 25 25 25 25 24 25 26 27 29 29 30 30 28 26 25 24 24 24
15 16 16 16 16 15 14 13 14 13 11 10 9 10 10 10 9 8 8 7 7 6 6 6 7 8 8 10 11 13 15 17 19 22 23 24 24 24 24 24 25 27 28 27 27 27 27 26 26 27 28 29 30 31 32 32 32 30 28 27 27 27 27
14 15 16 15 14 14 14 13 14 14 13 11 10 10 11 10 10 9 9 9 8 8 7 7 6 7 7 8 9 10 11 13 15 17 19 21 22 24 25 25 26 28 28 29 29 30 30 30 29 29 30 30 30 30 30 31 31 31 31 31 31 30 30
11 14 16 16 16 16 16 15 14 15 15 13 12 11 12 11 11 11 10 10 11 10 9 9 8 8 8 9 9 10 10 11 13 14 16 19 20 22 25 26 27 27 28 29 30 32 33 33 33 32 33 33 32 30 29 28 28 29 31 33 34 34 33
15 14 15 15 16 18 19 18 18 18 17 17 15 14 15 15 14 14 13 13 14 13 12 12 12 11 11 11 11 11 11 11 12 13 14 16 17 20 22 25 26 28 29 29 31 33 33 34 34 34 35 36 35 34 32 29 28 28 30 32 34 34 34
20 20 20 18 17 18 20 21 22 21 21 20 20 19 19 19 19 18 17 17 17 16 15 15 15 15 15 14 14 13 13 13 14 14 15 15 15 16 18 20 23 26 28 30 31 32 33 34 35 35 36 37 37 35 34 32 31 30 30 31 31 30 30
23 24 24 24 22 21 22 23 24 24 23 23 24 24 23 23 23 22 22 21 20 20 19 19 19 19 18 18 17 17 16 16 16 17 17 17 17 16 16 16 18 20 24 27 30 32 33 35 36 36 37 37 37 36 34 34 33 33 33 33 31 28 26
26 25 26 26 26 25 24 25 27 28 27 26 27 27 27 26 26 26 26 26 25 24 23 23 23 23 22 21 21 20 20 19 19 20 20 19 19 19 18 17 16 17 18 21 24 28 31 33 35 36 37 38 37 36 35 35 34 35 35 34 32 29 27
27 28 29 29 29 29 29 29 29 29 29 29 30 30 30 29 29 29 29 29 28 28 27 27 27 27 26 26 25 25 24 23 22 22 22 22 22 21 20 19 18 18 17 17 19 21 24 27 31 34 36 37 37 37 36 36 36 36 35 34 33 32 30
30 31 31 30 29 30 30 30 29 28 28 29 30 31 32 32 31 31 30 30 30 30 30 31 31 30 30 30 30 30 29 28 26 25 25 24 24 24 23 22 21 20 19 19 19 19 20 22 25 29 33 34 35 35 35 34 34 35 35 34 34 35 33
33 32 30 27 26 26 26 26 26 27 27 28 28 29 30 31 31 31 31 31 32 32 33 34 34 34 34 34 34 34 33 32 31 29 28 28 27 27 27 26 25 24 23 22 21 21 21 21 22 24 28 30 31 32 30 30 30 31 32 34 36 36 34
33 30 27 24 22 21 21 22 24 27 28 28 28 28 28 28 28 29 29 30 31 32 33 34 35 36 36 37 37 37 37 36 35 34 33 32 31 30 30 30 29 28 26 25 24 23 23 22 22 22 24 26 27 29 29 29 29 28 28 31 35 36 34
32 29 26 24 21 19 19 20 23 26 28 28 27 27 27 27 27 28 28 29 30 31 31 32 33 34 35 37 37 38 38 39 39 38 38 36 35 34 34 34 33 32 30 29 28 27 27 26 24 23 24 24 25 26 27 28 29 28 27 28 31 33 33
30 27 25 22 20 20 20 20 21 24 25 26 26 26 26 27 27 28 28 28 29 29 30 30 30 31 33 34 35 36 37 38 39 40 40 40 40 39 39 38 37 36 35 34 32 31 30 29 28 26 26 25 24 25 26 26 27 27 27 28 30 31 32
27 23 22 20 19 20 21 21 20 21 22 22 23 24 25 25 26 27 27 27 27 28 28 28 28 29 29 30 31 32 33 35 37 38 40 41 42 42 43 43 42 40 39 38 37 35 34 33 32 31 29 27 26 26 26 26 27 27 27 29 30 31 31

ECMWFFLT1_700_spd_102.txt.gz
Wind_Speed
37 37 33 30 28 24 22 20 19 19 20 20 19 19 19 19 17 17 17 17 17 16 16 15 16 17 18 18 18 18 17 17 15 14 12 12 12 12 12 11 10 9 9 9 9 9 8 7 7 7 8 8 8 8 8 8 8 8 7 7 7 7 8
36 36 34 32 29 25 23 23 22 21 20 20 19 19 20 20 18 17 17 17 17 16 16 16 16 17 18 19 19 19 19 18 17 15 14 14 14 14 14 13 12 11 11 10 10 10 9 7 7 7 7 7 7 7 7 8 8 7 7 7 7 7 7
35 34 33 32 30 28 26 25 25 24 22 20 20 20 20 20 19 18 17 17 17 17 18 18 17 17 18 20 21 20 20 19 18 17 16 15 15 15 15 15 14 13 12 11 11 10 9 8 8 7 7 7 6 6 7 7 7 7 7 7 7 8 8
31 32 33 33 32 31 29 28 27 27 25 22 21 20 19 19 19 19 18 17 17 18 18 18 18 18 18 19 20 21 21 20 19 18 17 17 17 16 16 15 15 14 12 12 11 11 10 10 9 8 8 7 7 7 7 7 7 7 7 7 7 7 7
28 32 35 36 34 33 32 31 31 30 27 24 23 22 21 20 20 20 19 18 18 18 18 19 19 19 19 19 19 20 21 20 20 19 19 18 18 17 16 15 15 14 13 13 12 11 11 11 11 10 9 8 8 8 7 7 7 6 7 7 7 7 6
28 33 35 35 35 35 35 34 33 31 29 27 25 24 23 23 23 22 21 20 19 19 20 20 21 21 21 20 20 20 20 21 21 21 21 20 20 18 17 16 16 15 14 14 13 12 12 12 12 11 10 10 9 9 9 8 8 7 6 6 6 6 6
26 30 31 31 33 34 34 32 32 34 34 32 28 26 26 24 24 24 24 23 22 21 21 21 22 22 22 21 21 21 20 21 21 22 22 22 21 20 18 18 17 16 15 15 14 13 13 13 13 13 12 12 11 11 10 10 9 8 7 7 7 7 6
22 26 28 28 29 28 27 26 29 34 36 34 30 29 29 28 27 26 25 25 25 24 23 23 23 23 23 22 22 22 21 21 21 22 22 23 23 21 20 19 18 17 16 15 15 14 13 13 14 14 14 14 13 13 12 11 11 10 9 8 7 7 6
16 20 23 25 25 25 24 24 27 31 32 32 33 33 33 33 31 28 26 26 26 25 25 25 24 24 24 24 23 22 22 22 22 22 23 23 23 23 21 20 20 19 17 16 16 15 15 14 15 15 15 15 14 14 13 13 12 11 10 10 9 8 7
15 16 18 20 21 22 23 25 26 26 27 29 32 35 36 37 35 32 30 29 28 27 26 26 27 26 25 24 24 24 24 23 23 23 23 23 23 23 23 22 21 20 19 19 18 17 16 15 15 15 15 15 15 14 14 14 14 13 12 11 11 10 9
15 16 17 18 20 22 23 25 24 23 24 26 29 33 37 37 35 33 31 30 29 29 29 29 29 29 28 26 25 26 26 25 25 24 24 23 23 23 23 24 23 23 22 21 20 19 18 17 16 16 15 15 15 15 14 14 14 14 14 13 12 11 11
13 13 13 14 16 19 21 21 21 21 22 25 28 29 29 28 27 27 28 29 31 32 32 32 31 31 31 29 28 27 27 27 26 25 25 24 24 23 23 24 24 24 24 23 22 21 19 18 17 16 16 16 16 16 15 15 15 15 15 14 14 13 12
12 11 11 12 13 14 15 16 16 18 21 24 25 24 22 21 21 23 26 30 31 31 31 32 31 30 30 32 31 29 29 29 28 27 26 25 25 24 24 24 25 25 25 25 25 24 22 21 19 18 18 17 18 17 17 16 16 15 15 15 14 14 13
13 12 12 12 11 11 12 13 14 16 19 20 21 21 21 21 22 22 23 24 24 26 27 28 29 28 29 33 33 30 29 30 29 28 27 26 26 25 24 24 24 25 26 26 26 25 24 23 22 21 20 19 19 19 19 19 18 17 16 15 15 15 14
14 13 13 11 9 9 11 12 14 16 19 18 18 19 20 21 22 22 21 21 21 24 25 26 27 28 30 32 31 30 31 31 30 29 28 27 26 26 25 24 24 24 25 26 27 26 25 25 24 24 23 21 20 20 21 20 19 18 18 17 17 17 16
14 12 12 12 11 11 12 13 13 16 18 18 17 19 20 20 20 21 21 21 22 24 24 22 23 25 27 29 29 30 32 31 29 29 29 27 27 27 26 26 25 25 26 26 27 27 27 26 26 25 25 23 23 22 22 22 21 20 19 19 18 18 19
13 12 12 12 12 11 12 14 15 16 18 19 19 19 20 21 21 21 21 20 21 22 20 18 18 20 23 26 27 29 31 30 29 30 30 28 27 27 27 27 27 27 27 27 27 28 28 28 27 26 26 25 25 24 24 23 23 22 21 21 20 20 21
14 13 11 10 10 11 12 14 16 18 19 19 19 19 19 21 22 22 20 19 19 19 17 15 17 19 21 23 24 27 30 31 30 32 32 31 29 29 29 29 29 29 28 28 28 28 28 28 27 27 27 27 26 26 26 25 24 24 24 23 23 22 23
13 11 9 9 10 11 12 13 15 19 19 18 17 17 17 18 19 18 17 17 17 17 15 15 16 16 18 19 22 25 29 32 34 35 34 33 32 32 32 31 31 30 29 29 29 29 28 27 26 26 26 26 26 26 26 26 25 26 26 26 25 24 25
10 9 8 10 12 13 14 14 15 18 20 18 17 16 15 15 15 15 14 13 13 13 14 14 14 13 14 15 17 19 22 27 33 36 35 33 33 34 33 32 31 32 32 31 31 29 28 28 27 27 27 26 26 25 25 25 25 25 26 26 25 25 25
10 9 9 13 14 17 18 16 14 16 18 18 17 15 14 13 13 13 14 13 12 12 13 12 11 10 10 11 12 13 13 16 22 28 31 33 34 35 33 31 31 31 33 34 33 32 30 30 29 29 29 28 27 26 25 25 25 25 25 25 25 25 25
9 10 11 14 16 18 18 15 13 13 14 15 16 14 13 13 12 12 12 12 12 12 12 11 9 8 9 11 12 11 10 11 15 20 25 29 32 32 31 31 33 33 33 33 33 32 32 31 31 31 30 30 28 27 26 26 26 27 26 26 26 25 25
4 5 7 9 12 14 15 14 14 12 12 13 14 13 12 12 12 12 12 12 12 12 12 11 9 9 10 11 12 13 11 10 11 14 17 21 26 28 28 31 33 33 33 32 30 30 31 31 32 32 31 30 30 29 29 29 29 29 28 28 28 27 27
5 5 5 6 6 7 7 8 10 10 10 11 11 10 10 10 11 11 12 13 12 12 12 11 10 10 11 12 13 14 15 14 13 12 11 14 20 25 27 29 29 28 29 29 27 27 28 29 30 30 30 31 31 32 32 33 32 32 31 30 30 30 30
6 6 7 8 8 8 7 7 8 8 8 8 8 8 8 8 8 9 10 10 10 9 10 11 11 11 12 14 15 15 16 17 18 17 15 15 18 22 22 21 21 22 24 26 26 25 24 24 25 26 28 29 30 32 33 34 34 34 33 32 31 32 32
7 8 9 9 9 9 8 8 7 7 5 5 5 5 5 6 6 7 8 8 8 8 8 9 9 10 11 13 15 16 17 18 19 19 19 18 18 18 16 14 14 16 20 24 25 24 22 21 21 22 23 24 26 28 30 32 34 34 34 33 32 32 33
9 9 9 9 8 8 7 6 5 4 3 2 2 3 3 4 5 6 7 7 7 8 8 8 8 9 10 11 13 14 14 15 16 16 15 15 15 15 14 14 15 16 19 21 22 22 20 20 21 22 22 23 25 26 27 29 31 32 33 32 32 32 33
10 10 9 8 8 6 5 4 2 1 0 1 2 3 4 5 5 6 6 6 7 7 7 7 7 7 8 9 10 10 9 9 10 10 10 11 11 11 13 15 17 18 19 20 20 20 20 21 24 25 26 27 28 28 28 28 29 29 29 30 31 32 31
6 5 4 3 2 2 3 4 4 4 4 5 6 7 8 9 9 9 9 9 8 8 8 8 8 8 8 8 8 8 8 8 7 7 7 7 8 8 10 12 14 16 18 20 21 22 23 25 27 28 30 31 32 32 32 31 31 30 30 30 31 31 31
5 4 4 4 5 6 7 8 9 10 10 11 11 12 13 13 14 13 13 12 12 12 11 10 10 10 10 10 10 10 9 9 9 9 8 8 8 8 8 9 10 11 13 15 17 19 22 25 28 30 32 33 34 34 35 34 33 32 31 31 32 31 32
8 6 5 5 6 8 9 11 13 15 16 17 17 16 16 17 18 18 17 17 16 15 15 15 14 14 14 14 14 13 13 13 12 12 12 12 11 11 11 11 11 11 11 12 13 15 17 20 22 25 28 30 31 32 33 35 34 33 32 32 33 33 34
8 7 6 5 6 7 10 13 16 19 21 22 21 20 19 18 19 20 21 22 21 20 19 19 19 19 19 18 18 18 17 17 17 16 16 16 16 16 16 16 15 15 15 15 15 15 16 16 17 18 20 22 23 24 26 29 31 30 30 31 33 34 34
9 8 7 7 8 9 12 15 18 21 24 25 25 24 23 21 20 20 21 24 25 25 24 24 24 24 24 24 23 23 22 22 22 22 21 21 21 20 20 20 20 20 20 19 19 19 19 19 19 18 18 19 19 19 21 24 25 25 25 26 28 31 32
10 10 10 11 11 13 15 18 20 22 24 26 27 27 26 25 23 20 20 22 24 27 28 28 28 28 28 27 27 27 27 27 26 26 26 26 26 25 25 25 25 25 25 24 24 23 23 23 23 22 22 22 21 21 22 23 23 23 22 22 23 25 26
12 13 14 15 16 17 18 21 23 25 26 27 28 28 27 27 25 23 21 21 22 24 27 29 30 31 31 31 30 30 30 30 30 30 29 29 29 29 29 29 29 29 30 29 29 28 27 27 26 26 26 26 26 25 25 25 25 25 24 23 23 23 22
15 16 17 19 20 21 23 25 27 28 28 28 28 27 27 26 26 25 24 23 22 23 24 26 28 30 31 32 32 32 32 33 33 33 32 32 32 32 32 32 33 33 33 34 34 33 33 32 31 30 30 29 29 28 28 28 27 27 27 27 26 25 24
17 19 21 23 24 25 27 29 30 30 29 28 27 26 25 25 25 25 25 24 24 23 23 24 25 27 28 30 30 31 32 32 33 33 33 33 34 34 34 34 35 35 36 36 36 37 37 36 36 35 34 34 33 32 32 32 32 31 30 29 29 29 28
21 23 24 25 27 28 29 31 31 30 28 27 25 24 24 23 23 24 25 25 24 24 24 24 25 26 27 28 29 29 30 30 31 31 31 32 32 33 33 33 34 34 35 35 35 36 36 37 38 38 38 38 37 36 36 36 36 36 35 34 33 33 32

ECMWFFLT1_700_spd_105.txt.gz
Wind_Speed
31 34 34 31 28 25 24 24 23 21 20 19 19 19 18 18 18 18 18 17 16 14 13 13 12 13 13 14 16 16 16 15 13 12 11 11 10 10 9 9 9 9 8 8 8 7 7 7 7 8 8 8 8 7 7 6 7 7 6 6 6 6 6
31 33 34 32 29 26 24 24 23 22 21 19 20 19 19 18 19 19 18 18 17 15 14 13 12 12 13 14 15 15 15 15 14 13 12 12 12 11 10 10 9 9 9 9 9 8 8 8 7 8 8 8 8 7 7 7 7 7 7 7 6 6 6
32 33 33 32 30 29 27 25 24 23 22 20 20 20 20 19 18 18 18 17 16 16 15 14 13 12 13 14 15 15 15 15 14 13 12 12 12 12 12 11 10 10 9 9 9 9 9 8 8 7 8 8 8 8 8 7 7 7 7 7 7 7 6
30 31 31 31 31 31 30 28 26 24 23 22 21 20 19 18 17 17 17 16 15 15 15 14 13 13 13 14 15 15 16 16 15 14 13 13 13 13 13 12 11 11 10 10 10 10 9 9 9 8 8 9 9 10 9 9 8 7 7 7 7 7 6
26 30 31 30 31 31 29 28 27 26 25 23 22 21 20 19 19 18 17 16 15 15 14 15 15 15 14 14 15 16 16 17 17 16 15 14 14 14 14 13 13 13 12 12 11 10 10 10 10 10 10 10 10 10 10 9 9 8 8 7 7 7 7
23 28 31 30 30 31 30 27 26 25 25 25 24 23 23 22 21 20 18 17 16 16 16 16 17 17 16 15 15 16 17 17 18 18 17 16 16 16 15 15 15 14 14 13 12 11 11 11 12 12 11 11 11 11 10 10 10 9 9 8 8 7 7
19 25 28 29 29 30 29 27 26 25 25 25 25 25 26 26 25 24 22 20 18 17 16 16 16 17 17 17 17 17 17 18 18 19 19 18 18 18 17 17 16 16 16 15 14 13 12 12 13 13 12 12 12 12 11 11 11 10 10 9 9 8 8
14 19 24 27 28 29 30 30 29 27 26 26 26 27 27 29 29 29 27 25 23 21 20 18 17 17 18 19 19 19 18 19 19 20 20 20 20 20 19 18 18 17 17 17 16 15 14 13 13 14 14 13 13 12 12 12 12 11 10 10 9 9 9
10 14 18 22 24 26 27 28 28 28 27 26 25 26 27 28 29 30 30 29 28 26 25 23 21 19 19 21 22 22 21 21 21 21 21 21 22 22 22 21 20 19 18 18 18 17 16 15 15 15 14 14 14 13 13 13 13 12 11 11 10 9 9
9 11 14 17 20 20 20 21 24 24 23 22 22 25 27 28 29 31 31 30 30 30 29 28 27 25 23 24 25 25 24 24 23 23 23 23 23 23 23 23 22 21 20 20 19 18 17 16 16 16 15 15 15 14 14 14 14 13 12 12 11 11 10
10 10 12 14 16 17 17 19 20 21 21 22 22 23 23 24 28 31 32 31 30 32 32 31 30 28 27 26 27 27 27 27 26 25 24 24 24 24 25 25 25 23 22 22 21 20 18 18 17 17 16 16 16 16 16 15 15 14 14 13 13 12 12
12 12 13 14 15 16 17 19 21 21 22 23 24 23 21 22 25 27 29 30 28 29 30 30 29 29 29 29 29 29 29 29 29 28 27 26 25 25 26 26 26 26 25 24 23 22 21 20 19 18 18 17 17 17 17 17 16 16 15 15 14 14 13
13 13 13 14 14 16 18 20 21 21 22 23 24 23 22 24 25 25 26 28 27 27 29 30 30 30 31 32 32 30 30 29 30 30 29 29 28 27 27 27 28 28 28 27 26 25 24 23 21 20 19 19 18 18 18 18 17 17 16 16 16 15 15
13 13 13 13 13 14 17 18 18 18 19 20 22 23 23 24 25 25 25 26 26 27 28 28 29 29 30 33 35 33 31 30 30 31 31 30 29 29 28 28 28 29 29 29 28 27 27 26 24 23 21 21 20 20 19 19 18 17 17 16 17 17 16
12 12 12 12 12 13 14 15 15 15 16 17 18 19 21 22 23 23 24 24 23 23 24 25 26 27 28 32 34 34 32 31 31 30 31 31 31 30 30 29 29 29 29 29 30 29 29 28 26 25 23 22 22 21 21 21 20 19 18 18 18 18 18
13 12 12 12 13 14 14 15 15 15 16 16 17 17 18 20 21 21 21 21 20 20 20 22 23 24 25 27 29 31 32 33 33 32 31 31 31 31 31 30 29 28 28 28 29 30 29 29 28 27 25 24 23 23 23 22 22 21 20 20 19 19 19
13 13 13 14 15 15 15 15 16 16 16 16 17 18 18 18 18 18 18 18 18 19 19 19 20 20 20 21 24 27 30 33 34 34 34 32 32 33 33 32 30 29 28 27 27 28 29 29 29 28 27 26 25 24 24 24 23 23 23 22 22 21 21
14 13 13 13 14 14 15 16 15 15 15 15 16 17 17 17 16 16 16 16 16 17 17 17 17 17 18 19 20 22 25 29 31 33 35 35 33 32 32 32 31 29 28 27 26 26 26 27 27 28 28 28 27 27 26 25 25 24 24 24 24 23 23
14 13 13 12 12 13 15 16 16 15 14 14 14 14 15 16 16 16 16 16 15 15 16 16 16 15 15 16 16 17 19 22 25 29 34 36 34 33 33 32 31 29 28 27 27 26 25 25 25 26 27 28 28 29 29 28 27 26 26 26 26 25 25
12 12 12 12 12 13 14 15 15 14 13 12 13 13 13 14 15 15 16 16 16 16 16 16 16 14 14 14 14 15 16 17 20 24 29 34 36 37 36 34 31 28 27 27 27 26 26 25 25 25 25 26 27 28 29 29 29 28 28 29 28 28 28
11 11 11 11 11 11 12 12 13 14 13 12 11 11 12 12 11 12 13 14 14 14 15 15 14 13 13 13 13 14 15 15 16 19 24 31 36 37 36 34 32 30 29 27 26 25 26 26 25 25 26 26 27 27 27 28 28 28 29 29 30 30 30
10 10 12 13 13 13 13 12 13 12 12 11 9 8 8 9 9 9 10 11 12 13 13 12 13 13 12 13 13 13 13 12 11 11 13 18 25 32 35 34 31 28 29 29 28 26 25 25 26 26 27 27 27 27 27 27 27 28 28 29 30 30 30
12 12 15 17 16 15 15 13 12 11 10 10 9 8 7 8 9 9 9 11 12 13 13 12 12 12 12 12 13 13 12 12 10 10 8 7 10 17 24 28 28 27 29 30 29 29 28 27 27 27 28 28 29 29 28 28 27 27 28 29 29 29 29
14 14 17 17 15 14 14 12 11 11 10 9 10 9 8 8 9 10 10 11 12 13 14 13 12 12 12 12 13 12 12 12 11 11 11 10 10 10 13 19 23 26 29 30 31 33 34 33 31 29 27 27 29 31 30 29 29 28 28 29 29 29 28
15 16 17 17 15 12 11 10 9 10 10 10 9 9 8 8 8 8 8 8 8 9 11 11 11 11 12 13 13 12 12 13 13 12 11 12 13 12 12 15 18 21 25 28 30 32 34 35 34 31 27 26 28 30 31 31 30 30 30 31 31 30 30
14 15 15 16 15 12 10 10 10 10 10 10 9 9 8 7 7 7 7 7 7 8 8 9 9 10 12 13 14 13 12 12 14 14 14 13 13 13 13 14 15 15 15 16 21 27 30 31 32 30 27 25 25 26 28 31 31 31 31 32 33 33 32
14 14 15 16 15 13 12 12 12 11 10 10 10 9 8 8 8 8 9 9 10 10 9 9 9 10 11 12 13 14 14 13 14 15 17 17 17 16 17 16 15 14 11 9 13 21 24 26 28 29 28 27 25 25 26 27 28 28 28 28 29 30 31
16 16 16 16 16 15 14 13 12 11 10 9 8 7 6 6 7 8 9 10 10 10 10 10 10 10 10 11 11 12 12 12 12 12 13 15 17 18 18 17 17 17 17 16 18 20 20 20 22 24 26 27 27 26 25 26 26 25 24 24 25 26 27
18 17 17 16 14 13 12 11 10 9 8 6 5 3 2 2 3 5 7 8 9 9 9 9 9 10 10 10 10 10 10 10 9 7 7 8 10 11 11 12 14 16 18 20 20 20 19 19 19 21 23 23 23 24 24 25 25 24 23 23 25 27 27
18 18 18 16 14 11 9 7 6 5 4 3 2 1 1 2 4 6 6 7 8 9 9 9 9 9 10 10 10 10 10 9 8 7 6 6 7 7 8 8 10 12 14 16 17 18 19 20 21 22 22 22 23 24 25 25 25 24 23 24 26 28 29
14 14 13 12 10 8 7 5 5 5 5 4 4 3 3 3 3 5 7 9 10 11 11 11 11 11 11 10 11 10 10 10 9 9 8 8 8 8 8 9 9 9 10 11 12 14 15 16 17 18 19 21 22 22 22 23 23 22 23 24 25 27 27
15 13 12 10 9 8 7 7 7 7 7 9 9 8 8 7 7 6 7 9 11 13 14 14 14 14 13 13 13 12 12 12 12 11 11 11 11 11 11 11 11 11 11 11 11 12 12 13 13 14 16 17 18 17 17 18 18 18 18 20 20 20 20
17 15 13 11 10 8 8 9 10 9 9 11 11 12 12 12 11 11 9 9 11 13 15 16 17 17 17 16 16 16 15 15 15 15 15 14 14 15 14 14 14 14 14 14 14 14 14 14 15 16 17 18 18 18 17 17 17 16 16 16 15 15 15
17 16 14 12 10 8 8 10 12 13 13 13 13 13 14 14 14 13 12 12 11 13 15 17 18 19 20 20 20 20 20 19 19 19 19 19 19 19 19 19 19 19 18 18 18 18 18 19 19 19 20 21 22 22 22 21 21 20 19 19 18 17 16
19 16 14 11 9 8 9 11 13 15 15 16 16 16 16 15 15 14 13 13 13 13 15 16 17 19 20 22 23 23 23 23 23 23 23 23 23 23 23 23 23 23 23 23 23 22 23 23 23 24 24 25 25 26 26 27 27 26 25 25 24 24 22
20 17 14 10 9 10 12 13 14 15 16 18 19 19 19 18 17 16 14 14 14 14 15 16 17 18 19 20 22 23 24 25 25 26 26 26 26 27 27 27 26 26 27 27 27 27 27 27 27 27 28 28 29 29 29 30 30 30 30 29 29 29 28
11 11 10 8 9 12 14 15 16 17 18 19 20 21 21 20 19 17 16 15 14 15 15 15 16 17 18 19 20 21 22 23 24 24 25 25 26 27 28 28 29 29 29 30 30 30 30 31 31 31 31 31 32 32 33 33 33 33 33 33 32 32 32
8 10 10 10 11 14 15 17 19 20 20 20 21 21 21 21 20 18 17 16 15 15 15 15 15 15 16 17 18 20 21 22 22 23 23 24 24 25 26 27 28 28 29 29 30 31 31 32 32 33 33 33 33 33 34 34 34 33 34 34 34 34 34

ECMWFFLT1_700_spd_108.txt.gz
Wind_Speed
30 33 34 33 32 31 29 28 29 30 29 28 26 24 23 21 20 19 18 17 17 16 15 16 17 17 18 19 19 19 18 17 16 15 14 13 13 12 12 12 12 12 11 11 11 11 10 10 10 10 10 10 9 9 9 9 9 9 9 9 9 9 9
30 34 35 35 33 31 30 29 30 31 30 28 27 25 23 23 21 20 18 17 17 16 16 16 16 17 18 18 19 19 19 17 16 15 14 14 13 12 12 12 12 11 11 11 11 10 10 10 10 10 10 10 10 10 10 10 10 10 9 9 8 8 8
28 34 35 35 33 31 30 31 32 31 29 28 27 25 24 22 20 18 17 17 17 17 16 16 16 17 17 18 19 19 19 18 16 15 14 13 13 13 12 12 12 11 11 10 10 10 10 10 10 10 10 10 10 10 11 11 11 10 10 9 8 8 8
24 32 35 35 34 33 31 32 32 31 30 28 27 25 23 20 18 17 16 15 16 17 16 16 16 16 17 18 19 19 19 18 17 16 15 15 14 14 14 13 13 12 11 10 10 9 9 10 10 10 10 10 10 10 11 11 10 10 9 9 8 8 8
21 30 35 35 35 35 33 33 33 32 30 29 27 25 23 21 20 18 17 16 16 16 16 16 17 17 17 17 18 19 19 19 18 17 17 16 16 15 14 14 14 13 12 11 10 9 9 9 10 10 10 10 10 10 11 11 10 10 9 9 8 8 9
16 26 32 33 34 35 34 32 32 32 31 29 28 26 25 24 22 21 19 18 16 15 16 18 18 18 18 17 18 19 19 20 19 19 18 17 17 16 15 15 14 14 14 13 11 10 9 9 10 10 10 10 10 10 11 11 10 10 9 9 9 8 8
11 20 28 31 33 35 35 33 32 32 32 31 30 29 27 26 25 23 22 20 19 17 16 17 17 18 18 18 18 18 19 20 20 20 19 19 18 17 17 16 16 15 15 14 13 12 10 10 10 11 11 11 10 11 11 11 11 10 10 10 9 9 8
9 15 24 30 33 34 35 35 33 33 34 33 31 30 29 28 27 26 24 23 22 21 19 17 17 17 18 19 19 19 19 20 20 21 20 20 19 19 18 17 17 16 16 15 14 14 12 11 11 11 12 12 12 12 12 12 11 11 11 10 10 9 9
8 10 17 26 31 32 33 34 34 34 35 34 33 32 31 30 30 29 27 27 25 24 23 21 20 19 19 20 20 21 21 20 21 21 21 21 20 20 19 19 18 18 17 16 16 15 15 13 13 13 13 13 13 13 13 13 13 12 12 11 11 10 10
8 9 13 20 27 30 31 31 32 33 33 33 34 34 33 33 33 31 30 30 28 27 26 25 24 23 21 21 22 22 22 22 21 22 22 22 21 21 21 21 20 20 19 18 17 17 16 16 15 14 14 14 15 15 14 14 14 13 13 13 12 11 11
9 10 12 17 23 28 30 29 30 32 33 33 31 32 33 34 34 33 32 31 29 29 29 28 27 26 24 23 23 24 24 24 23 23 23 22 22 22 22 22 22 22 21 20 19 19 18 18 17 16 15 15 16 16 16 15 15 14 14 14 13 13 12
10 11 12 15 20 26 29 29 28 31 34 34 31 28 29 30 30 30 30 32 32 32 32 32 30 29 28 27 26 26 26 26 25 24 24 24 24 24 24 24 24 24 23 23 22 21 20 19 19 18 17 17 17 17 17 16 16 15 15 15 15 14 13
13 13 14 15 19 24 27 28 27 28 31 33 32 30 26 24 23 22 22 27 33 34 33 34 33 32 31 30 28 27 27 27 27 26 26 26 25 25 25 25 26 26 26 25 25 23 22 21 21 20 19 18 18 18 18 17 17 17 16 16 16 15 15
13 13 14 15 17 21 23 25 25 24 25 27 27 26 23 22 22 21 20 22 28 32 33 33 34 34 34 33 31 29 28 28 28 28 29 29 28 27 26 26 26 27 28 28 27 26 25 24 23 22 21 20 20 19 19 18 18 18 18 17 17 17 16
14 15 16 16 17 18 21 22 22 22 23 24 24 24 23 23 24 25 25 23 25 29 31 32 34 35 35 34 34 32 31 31 30 29 30 31 30 30 29 28 28 28 29 29 29 29 28 27 26 24 23 22 21 20 20 19 19 19 19 19 18 18 17
16 17 17 17 17 16 18 19 20 21 22 23 24 24 24 25 26 28 28 25 24 26 28 30 32 33 34 33 33 33 33 33 32 31 31 31 32 32 31 31 30 29 29 29 30 30 30 29 28 26 25 24 23 22 21 21 21 20 19 19 19 19 18
18 17 17 17 16 15 15 16 17 18 19 20 21 22 23 24 25 25 25 23 22 23 24 25 26 27 29 29 31 33 35 36 35 34 33 32 32 32 32 32 32 31 31 30 30 30 30 30 29 28 28 27 25 24 24 23 24 22 21 21 21 21 20
17 17 16 16 15 14 15 15 16 16 17 18 19 20 20 20 20 21 21 22 21 21 22 23 23 24 25 26 29 31 33 34 35 36 36 35 35 34 33 32 32 33 32 31 30 30 29 29 29 29 29 29 28 27 26 26 26 24 22 23 23 23 22
16 15 15 15 14 14 14 15 16 16 17 18 19 19 17 17 17 18 18 20 21 21 22 23 23 23 24 25 26 26 27 28 30 34 38 39 39 38 36 34 33 33 33 32 32 31 29 29 29 29 29 30 30 29 28 28 29 26 24 25 25 25 25
14 15 14 14 14 15 15 15 16 15 16 17 17 16 15 15 17 17 18 20 21 20 20 20 21 21 21 21 22 22 23 24 25 28 33 37 40 40 39 38 36 34 34 34 33 32 30 29 29 28 28 28 28 29 28 29 30 29 27 27 28 27 27
16 16 15 14 14 14 13 14 14 13 12 13 12 11 11 12 14 15 17 19 20 20 19 19 19 19 19 20 20 20 20 21 21 23 26 30 35 37 40 41 41 38 36 34 33 32 31 30 29 28 27 26 26 26 26 28 30 30 29 30 30 29 29
18 17 16 14 13 11 11 13 14 14 14 13 11 11 11 11 11 11 13 17 19 19 19 18 19 19 19 19 19 19 19 18 19 20 22 24 27 30 33 37 41 41 39 35 33 31 30 29 28 28 26 25 26 25 25 28 29 27 27 28 29 29 30
18 17 15 14 14 13 13 13 14 16 17 15 12 12 13 14 14 12 13 16 17 17 16 17 18 18 19 19 19 18 18 18 18 19 20 21 22 23 24 27 32 37 38 36 33 31 29 28 27 26 26 26 26 25 26 28 27 24 25 26 26 27 28
17 17 16 16 16 16 15 15 15 15 16 16 14 13 13 13 13 13 14 15 16 15 15 15 16 17 18 18 18 18 18 18 18 18 17 18 17 17 17 18 22 28 34 37 35 33 33 32 29 26 25 25 25 25 26 26 23 23 25 26 26 26 26
20 21 20 18 17 17 15 15 16 16 16 16 16 14 12 12 13 13 13 13 14 14 14 15 15 16 17 17 18 18 18 18 18 17 17 17 16 14 14 14 15 19 26 32 34 34 36 38 36 32 28 27 26 26 26 25 23 23 25 26 26 27 26
22 22 21 17 16 16 16 15 16 16 15 15 14 14 13 13 14 14 13 13 13 12 13 14 15 15 16 17 17 18 18 18 18 17 17 17 16 14 14 13 12 14 19 23 28 32 35 38 39 38 37 35 35 35 34 31 28 26 25 24 24 26 27
21 19 19 18 16 15 15 15 15 15 14 14 13 13 13 14 15 15 15 14 14 13 12 13 14 14 15 16 17 17 18 17 16 16 17 16 15 13 13 12 11 12 15 18 21 24 26 29 32 37 40 41 42 44 44 40 32 24 20 20 21 23 25
23 23 22 21 19 18 17 15 14 13 12 12 12 11 12 12 13 13 13 13 13 13 12 12 13 14 14 14 15 16 17 16 15 16 16 17 16 15 14 13 11 11 13 15 14 14 15 19 23 28 32 34 35 38 41 41 35 27 22 20 18 19 21
20 22 24 23 21 20 19 17 15 14 12 10 10 9 8 8 9 9 10 11 11 11 12 12 14 14 14 14 14 14 15 15 15 15 16 16 17 18 17 16 15 14 14 15 15 14 14 16 17 19 22 23 25 26 29 33 34 32 30 27 22 19 20
14 17 21 24 24 23 21 19 16 14 12 10 9 8 7 6 6 7 8 9 10 11 12 13 14 14 14 14 13 13 13 13 14 13 13 13 13 14 15 16 16 17 17 19 19 18 18 18 18 19 19 20 21 21 21 23 25 25 25 25 23 20 20
15 16 17 20 21 21 20 18 16 13 11 9 7 6 5 4 4 5 6 8 10 12 13 13 13 13 14 14 14 13 13 12 13 12 11 11 11 11 11 11 12 13 14 16 18 20 20 20 19 19 19 19 19 19 19 20 20 19 20 21 21 21 20
17 17 17 17 16 15 14 14 13 11 10 9 6 4 3 3 3 4 5 6 9 11 12 12 12 12 13 13 13 13 13 12 12 12 12 12 12 11 11 11 11 10 11 12 13 14 16 16 15 14 14 13 13 14 15 17 18 18 18 19 20 21 22
19 19 18 16 14 13 12 12 12 11 10 8 7 5 4 4 4 5 5 6 7 9 11 12 13 13 13 13 13 13 13 13 13 13 13 13 13 13 12 12 12 12 11 11 11 12 12 12 12 12 12 11 11 12 13 14 15 15 15 16 16 17 18
24 24 22 20 18 16 15 14 15 14 13 11 9 6 3 4 4 5 7 8 8 9 10 11 12 13 14 14 14 14 15 15 15 14 14 14 14 14 14 14 14 14 14 14 14 14 14 14 14 14 14 15 15 15 15 15 16 16 16 16 17 17 18
25 23 22 22 20 17 15 15 14 12 12 12 12 9 7 6 5 5 6 7 9 10 11 11 12 13 14 15 16 17 18 18 18 18 18 18 18 17 17 17 17 17 17 18 18 18 18 18 18 18 18 19 19 20 20 20 20 20 20 20 20 21 21
25 25 23 22 20 16 14 13 10 8 8 10 11 12 12 11 7 7 7 7 8 10 11 12 13 13 14 15 16 17 19 20 21 22 22 22 22 22 22 21 21 21 21 21 21 22 22 22 22 22 23 23 23 24 24 24 24 24 25 25 25 26 26
19 23 22 20 19 16 14 11 8 7 8 8 9 11 14 15 13 10 10 10 9 9 10 11 12 13 14 15 15 16 18 19 20 22 23 24 25 25 25 25 25 25 25 25 25 25 26 26 26 26 26 27 27 27 27 27 28 28 28 29 29 29 29
13 17 19 18 15 11 9 8 8 8 8 9 9 10 11 14 15 15 13 13 11 10 10 11 12 13 13 14 15 16 16 17 19 20 22 23 24 25 26 26 26 26 27 27 28 28 28 28 29 29 29 29 30 30 30 30 30 30 31 31 31 31 31

ECMWFFLT1_700_spd_111.txt.gz
Wind_Speed
31 32 31 30 30 30 28 26 26 26 25 24 23 23 21 21 20 20 21 21 20 19 19 19 19 20 20 21 21 21 19 18 17 16 16 16 16 15 15 15 15 15 14 14 14 14 13 13 12 11 11 12 12 11 11 11 11 11 11 10 9 9 10
30 33 34 33 32 32 30 27 26 26 26 25 24 24 23 22 22 21 21 21 21 20 20 20 20 20 20 21 22 22 20 19 18 18 18 17 16 15 15 15 15 15 14 14 13 13 12 12 12 11 11 11 11 11 11 11 10 10 10 9 9 9 10
26 30 34 35 33 32 30 27 26 26 27 26 26 25 24 23 22 22 21 21 21 20 20 20 20 20 21 21 22 22 21 20 19 19 18 18 17 16 16 15 14 13 13 13 11 11 11 11 11 11 11 11 11 11 11 10 10 9 9 9 9 10 11
21 26 31 34 33 31 29 27 26 27 27 27 26 25 25 24 23 22 22 21 21 21 20 19 20 20 21 21 21 22 22 21 20 19 19 18 17 17 16 15 15 14 13 13 12 11 11 11 11 11 10 11 11 10 11 10 10 9 9 9 10 10 10
18 24 30 34 34 33 31 30 29 27 27 28 27 26 26 25 24 23 22 21 21 21 20 19 20 20 20 20 21 21 22 22 21 21 20 19 18 17 16 16 16 15 14 14 14 13 11 10 10 10 10 10 10 10 11 11 10 10 9 10 10 10 10
16 22 29 34 36 36 35 33 31 28 28 29 29 29 28 26 25 25 23 22 21 21 20 20 20 20 20 20 20 21 22 22 22 21 21 20 19 18 17 17 16 15 15 15 14 13 11 11 11 10 10 10 10 11 11 11 11 10 10 10 10 10 10
15 20 28 35 37 36 35 34 31 29 29 30 30 30 29 28 27 26 24 23 22 22 21 21 21 20 20 21 21 21 21 22 22 22 22 21 20 19 18 18 17 16 16 15 14 13 13 12 12 11 11 11 11 11 11 11 11 11 11 11 10 10 9
12 16 24 32 36 36 36 34 33 32 31 31 31 31 31 30 28 25 24 22 22 22 21 22 22 21 21 21 21 21 21 21 22 22 22 21 20 19 18 18 18 17 17 16 15 15 14 13 13 12 12 12 12 12 11 11 11 11 11 11 10 10 9
10 12 19 27 33 36 37 36 34 33 33 34 32 32 32 31 28 26 25 23 23 22 22 22 22 22 22 22 22 22 21 22 22 22 22 21 21 20 20 19 18 18 18 17 16 16 15 14 14 13 13 13 12 12 11 11 11 11 11 11 10 10 9
9 12 16 24 32 36 38 38 36 35 37 37 35 35 35 32 29 27 27 26 25 23 22 22 23 23 23 23 23 22 22 22 22 22 22 22 22 21 21 20 20 19 19 19 18 17 16 16 16 14 13 13 12 12 12 12 11 11 11 11 11 11 10
10 11 14 20 29 35 38 38 37 36 37 37 36 36 35 33 30 29 28 27 26 26 25 24 25 25 24 23 23 23 23 23 23 23 23 23 23 23 22 22 22 21 20 20 20 19 18 18 18 16 14 13 13 12 12 12 12 12 12 11 11 11 10
10 11 11 15 23 32 36 37 37 38 38 36 35 36 35 33 31 30 30 30 28 28 27 26 26 26 25 24 24 25 25 24 24 24 24 23 23 23 23 23 23 23 21 20 20 20 19 19 18 17 15 15 14 14 13 13 13 13 13 12 13 12 12
11 11 11 12 17 24 29 33 36 39 38 36 36 37 36 35 32 31 32 32 31 30 29 28 28 28 27 26 26 26 26 26 25 24 24 24 24 24 24 23 24 24 23 22 21 21 20 20 19 17 16 16 15 15 14 14 14 14 14 14 14 13 13
11 11 10 11 13 16 21 28 33 35 34 33 34 36 38 36 31 31 34 32 32 33 32 31 31 31 30 30 29 28 27 26 27 26 26 25 24 24 25 25 25 25 25 25 25 23 21 21 20 18 17 16 16 16 16 15 15 14 14 15 15 15 15
13 12 11 12 13 13 17 24 29 31 30 29 31 33 37 37 31 28 29 28 30 34 35 34 35 34 34 34 33 31 29 28 29 29 28 28 27 26 25 25 25 26 26 26 26 25 23 23 22 21 20 18 17 17 17 17 16 16 16 17 16 16 16
15 15 14 14 13 13 16 20 24 28 29 28 28 29 33 36 33 28 27 28 30 32 32 34 37 39 38 37 35 34 33 32 32 31 30 30 29 28 27 27 27 27 27 26 26 26 25 25 24 23 23 21 19 18 18 18 18 18 17 17 17 17 17
18 18 17 15 14 14 16 18 19 23 26 27 27 26 28 33 35 34 33 34 34 32 32 32 34 37 39 39 38 38 37 36 35 34 33 33 32 31 31 30 29 29 29 28 27 27 26 26 25 24 25 24 21 20 19 20 21 21 20 18 18 18 19
19 18 16 15 15 15 16 18 18 19 21 22 23 23 23 25 28 29 30 31 32 31 32 33 31 32 35 37 38 39 40 40 39 38 37 36 36 35 35 34 32 31 31 30 30 29 28 27 27 26 25 25 24 23 22 22 23 23 22 20 20 20 20
18 17 16 16 16 17 17 19 20 20 20 20 21 21 21 21 23 25 26 27 29 28 29 30 30 31 33 35 36 37 38 39 40 40 40 40 40 40 39 38 37 34 33 32 32 32 31 30 29 28 27 26 26 26 25 24 24 25 23 21 21 22 22
17 18 18 18 18 17 17 18 18 19 20 21 21 21 21 22 23 24 25 26 26 26 27 28 29 31 32 33 33 33 33 34 36 36 37 40 42 43 43 42 40 38 36 35 35 34 33 32 30 29 29 27 27 27 27 26 27 27 26 23 22 24 24
18 19 19 18 17 17 18 19 19 19 20 20 21 21 21 22 22 23 24 24 24 24 25 27 28 28 28 29 30 30 30 30 30 31 34 39 41 42 44 43 42 41 39 38 37 35 34 33 32 30 28 27 28 27 26 28 29 29 29 26 25 26 26
17 19 19 18 18 18 19 19 20 20 20 20 20 21 21 22 22 22 22 23 23 23 24 25 26 26 27 28 29 30 29 28 28 29 32 35 36 37 39 39 40 43 43 41 39 38 37 37 35 31 29 27 27 27 28 29 29 29 28 27 26 26 27
17 18 17 16 18 19 19 20 20 20 20 19 18 19 21 22 23 23 22 22 22 22 23 24 24 25 25 27 28 28 27 26 26 27 26 27 28 28 28 29 33 38 41 41 42 41 41 40 36 32 32 30 28 29 30 30 29 28 27 24 23 24 25
18 18 17 17 19 19 18 19 20 19 19 18 17 18 21 22 22 22 21 20 20 22 23 23 23 24 25 25 26 25 24 24 24 24 23 22 22 21 20 22 25 28 31 35 38 39 41 42 38 33 32 32 29 28 30 29 28 27 26 23 22 22 23
20 19 19 18 19 19 18 19 19 18 20 20 19 20 22 22 22 22 20 19 20 22 23 22 23 26 27 26 26 26 25 24 24 24 23 21 20 18 19 20 21 22 24 27 30 31 33 36 38 35 33 33 32 29 28 27 26 25 24 21 20 20 22
22 21 21 21 21 21 21 21 22 21 21 21 20 21 22 21 21 22 22 21 21 21 21 20 22 24 26 26 26 26 25 25 24 23 22 21 20 18 18 17 17 18 19 21 22 23 22 25 32 34 34 34 34 31 28 24 23 24 24 23 21 19 20
24 23 23 24 25 24 22 21 22 23 24 23 21 20 21 20 20 23 24 23 22 21 19 19 20 22 24 24 24 24 23 23 23 22 21 21 20 18 18 18 17 17 17 16 17 16 16 19 25 30 32 34 33 33 31 26 23 23 25 25 23 21 20
26 28 28 26 25 25 24 23 22 22 24 25 23 22 22 20 20 21 22 21 21 22 21 21 21 21 22 23 23 21 21 21 21 21 21 21 20 19 19 18 17 15 14 14 14 12 14 18 22 25 29 29 26 25 27 30 30 30 31 32 32 31 29
20 24 27 28 28 27 25 23 21 19 19 20 21 21 21 21 19 19 19 18 18 20 20 21 21 19 19 20 20 19 18 19 19 19 19 19 19 19 19 18 16 14 12 11 10 10 11 16 19 20 21 22 20 19 21 27 31 33 34 36 37 40 39
14 15 15 19 23 26 27 24 21 18 17 16 16 16 16 17 17 18 17 16 17 18 18 18 18 17 17 16 16 16 17 17 17 17 17 17 17 18 18 17 17 16 14 12 11 11 11 13 14 14 13 15 17 19 21 23 26 27 29 30 31 34 38
13 13 12 13 16 19 22 23 21 20 19 17 14 12 12 11 13 14 15 15 15 16 16 16 15 14 14 14 15 15 16 16 16 16 16 16 16 16 16 16 16 17 17 16 15 15 15 15 15 15 14 13 14 16 17 18 20 21 21 22 22 24 28
13 13 12 12 13 15 15 15 14 15 16 16 14 12 10 9 8 9 12 14 14 13 14 14 14 13 14 14 13 13 13 14 15 16 16 16 15 14 13 13 13 14 14 14 14 15 16 17 17 17 17 16 15 15 16 16 17 17 17 18 18 19 21
15 14 15 16 16 15 15 15 13 12 10 10 10 9 7 7 6 7 9 12 14 14 14 13 13 13 14 14 13 12 13 14 14 14 14 15 14 13 13 12 12 11 11 10 10 11 12 13 14 14 14 13 12 11 12 13 13 14 14 15 16 17 18
16 18 19 20 18 16 15 16 15 15 13 11 10 7 5 4 4 5 7 10 10 9 10 11 12 13 14 15 15 14 14 15 15 15 15 15 14 14 13 13 12 11 11 10 10 10 10 11 11 11 11 12 11 10 11 11 10 11 12 13 14 15 16
17 18 20 20 19 18 17 15 15 14 14 14 14 11 6 3 2 2 3 6 6 5 6 8 10 12 14 16 17 17 17 17 17 17 17 17 16 15 15 15 14 13 13 13 12 12 13 13 13 12 13 14 13 13 14 14 13 13 15 15 16 16 17
17 18 19 20 19 18 17 16 14 13 12 12 13 13 11 10 9 8 7 6 4 3 4 6 8 10 13 15 17 18 19 20 19 19 19 19 18 17 17 17 17 16 16 16 16 16 16 17 16 16 17 18 17 16 18 19 18 18 19 19 19 20 20
19 18 19 19 20 19 18 17 15 12 11 10 10 11 11 11 13 15 16 14 10 7 5 5 7 10 12 13 15 17 18 19 20 20 21 21 21 21 21 21 20 20 20 20 20 20 20 21 21 21 21 22 21 20 21 22 22 22 22 22 23 23 24
21 20 20 21 22 23 22 19 16 14 13 12 11 11 11 10 10 12 15 17 17 16 11 8 7 9 11 12 14 15 16 17 18 19 20 21 22 22 23 23 24 24 23 23 24 24 24 25 25 25 25 25 25 24 24 25 25 25 25 26 26 26 27

ECMWFFLT1_700_spd_114.txt.gz
Wind_Speed
31 31 30 29 29 28 28 27 26 24 24 24 23 22 20 20 20 18 17 17 17 17 17 17 17 17 17 18 18 18 17 15 14 14 13 14 13 13 13 13 13 13 12 12 12 11 11 10 10 10 9 9 9 9 9 9 8 9 9 8 8 8 9
32 33 32 30 31 30 29 29 27 25 26 24 23 23 22 21 21 19 18 17 17 17 18 18 18 18 18 19 19 19 18 16 15 14 14 14 13 13 13 13 13 13 12 11 11 11 11 11 11 11 10 10 10 9 9 9 9 8 8 9 9 9 9
33 34 33 32 33 32 31 31 28 26 27 26 24 24 23 22 21 19 18 18 17 17 18 18 18 18 18 19 20 20 19 17 16 15 15 14 14 13 13 13 13 12 11 11 11 11 11 12 11 11 11 10 10 9 9 10 10 9 9 10 9 9 8
30 33 34 34 35 33 32 33 30 28 28 27 24 24 23 23 22 20 18 18 17 18 18 19 19 19 19 19 20 21 20 18 17 16 17 16 16 15 14 13 13 13 12 12 12 11 11 12 11 11 11 10 10 10 10 11 10 10 10 10 9 8 8
24 30 34 36 37 36 35 34 30 28 27 26 24 24 24 24 23 21 19 18 18 18 18 19 20 20 19 19 19 20 20 19 18 18 18 17 17 17 16 14 14 13 12 11 12 11 10 10 10 10 11 10 10 10 10 11 11 10 10 10 9 8 8
21 26 33 38 40 40 38 35 30 28 26 25 24 24 23 24 23 21 20 19 18 19 19 20 20 20 20 19 19 20 21 21 20 19 19 18 17 17 17 16 15 14 13 12 12 11 10 10 10 11 11 10 10 10 10 10 10 10 10 9 9 8 8
22 24 28 35 41 43 41 37 32 29 27 25 24 24 24 23 23 22 21 19 19 20 20 21 21 20 20 20 20 20 21 21 21 21 20 19 18 17 17 16 16 15 13 12 12 12 10 10 11 11 11 10 10 10 10 10 10 10 9 9 9 8 8
21 23 24 29 38 44 43 38 33 30 28 26 24 24 25 24 24 24 22 21 20 21 21 21 21 20 21 21 20 20 20 21 21 22 21 21 20 18 18 17 15 14 13 13 13 12 12 11 12 12 11 10 10 10 9 9 9 9 9 9 8 8 8
19 20 21 25 33 42 43 38 34 31 29 27 25 24 26 27 27 26 25 23 22 22 22 21 21 21 21 20 20 20 20 20 21 21 22 22 21 20 19 18 16 15 14 14 14 14 13 13 13 13 12 11 11 10 9 9 9 9 9 9 9 9 9
17 18 20 23 29 38 41 38 35 32 30 29 28 28 28 28 28 27 26 24 23 23 23 23 23 21 21 21 20 20 20 20 20 20 21 22 21 21 20 19 18 17 16 16 16 15 15 15 15 14 14 12 11 10 10 10 10 10 9 9 9 9 9
16 17 18 20 25 34 40 40 37 34 31 31 32 31 30 29 28 27 27 25 25 25 24 24 25 24 22 22 21 20 20 19 20 20 20 20 21 21 20 20 20 19 18 17 17 16 15 15 15 15 15 14 12 12 12 11 11 10 10 9 10 10 9
16 17 16 16 19 27 35 39 39 37 34 33 33 32 30 29 27 27 27 27 26 25 25 25 26 25 23 23 22 21 21 20 20 20 20 20 20 20 20 20 20 19 19 18 17 16 16 16 16 16 17 16 15 14 14 12 11 10 10 10 10 11 10
16 16 14 13 16 23 31 35 37 36 34 33 33 32 31 29 28 28 29 30 30 29 27 26 25 24 23 23 23 22 21 22 21 20 20 20 20 20 20 20 19 20 20 19 18 18 17 17 17 17 17 17 16 15 15 14 12 11 10 10 11 11 11
16 15 14 13 16 21 27 30 32 33 33 33 33 32 31 30 30 30 31 31 31 30 27 24 23 24 24 24 24 22 22 22 22 21 20 20 20 20 20 20 19 19 21 19 19 19 19 18 17 17 16 16 15 16 16 15 14 13 12 12 11 11 12
17 16 14 12 15 19 22 24 28 31 32 33 34 34 33 33 32 32 31 29 27 25 23 22 23 25 26 25 25 24 23 23 23 23 23 23 23 22 22 21 20 20 20 19 19 20 20 19 18 17 17 16 15 16 17 16 15 14 13 13 12 12 13
16 17 17 15 15 16 18 22 26 31 33 34 36 36 35 35 35 34 33 31 29 27 24 25 27 28 27 26 26 25 25 25 25 26 26 25 26 25 24 24 23 23 22 20 20 20 20 21 21 20 19 17 15 15 17 17 16 16 15 14 13 13 13
16 16 17 18 19 16 15 18 21 26 32 34 36 38 37 35 35 36 35 33 32 30 28 29 30 30 30 30 29 28 28 28 28 28 28 27 27 27 26 25 25 25 23 23 22 21 21 22 22 21 20 18 17 17 18 18 17 17 17 16 14 14 14
14 14 13 17 20 16 14 17 18 21 27 29 32 36 37 35 36 37 37 36 35 33 31 31 33 32 31 32 32 33 33 33 33 32 32 31 31 30 29 28 27 26 26 25 25 24 23 23 22 22 21 20 19 19 20 19 18 19 20 18 16 15 16
9 12 14 16 16 15 17 20 20 19 21 24 28 31 32 32 32 34 37 39 39 36 32 32 33 31 30 30 32 34 36 36 37 37 37 35 33 32 31 31 31 30 29 29 28 27 26 25 25 24 23 22 21 22 22 21 21 22 22 20 18 17 17
7 10 13 14 14 15 17 19 18 18 18 22 26 27 28 29 29 29 32 37 40 40 37 35 35 34 33 33 34 34 34 35 36 38 39 38 37 36 35 34 34 33 32 32 31 30 29 28 28 27 26 26 25 25 26 25 25 24 22 21 20 18 18
9 10 10 10 12 13 13 13 15 16 18 21 23 24 26 28 27 25 27 31 36 40 41 39 38 37 35 35 34 33 32 33 34 35 37 38 38 39 39 39 38 37 35 35 35 34 32 32 31 30 30 30 29 29 28 27 27 26 24 24 24 21 20
11 12 11 11 12 12 11 10 10 12 13 16 19 20 22 22 22 22 24 27 30 34 37 37 35 33 32 31 30 31 31 32 33 33 33 35 36 36 37 38 38 38 37 37 37 37 37 37 36 34 33 33 33 31 29 28 29 30 28 27 27 24 22
12 13 14 14 14 14 13 13 13 12 12 13 15 16 18 19 21 22 23 24 26 29 30 30 30 29 29 27 27 29 30 31 30 29 29 31 31 31 31 32 33 35 35 35 34 34 35 37 38 37 36 36 36 34 32 30 30 31 30 30 29 26 23
16 16 17 16 16 17 18 18 18 17 16 16 16 16 18 19 21 22 22 23 25 26 26 26 26 26 26 25 26 28 28 28 27 26 25 26 26 25 25 25 27 28 29 28 28 29 32 34 37 38 40 41 40 37 34 32 32 32 31 28 27 26 24
18 18 17 16 16 17 18 19 20 19 19 19 18 18 20 21 22 23 24 25 26 25 25 25 24 24 24 24 25 26 26 26 26 25 25 24 23 23 22 21 22 23 22 21 21 23 26 29 32 34 38 42 43 41 40 37 35 34 31 27 26 26 25
18 18 17 17 18 18 18 19 20 20 19 19 19 21 22 23 24 26 26 26 26 25 25 24 23 22 23 23 23 24 23 24 24 24 23 23 23 23 21 20 19 20 19 19 18 19 21 24 27 29 32 36 36 38 41 40 37 34 30 27 28 28 26
17 18 18 17 18 20 21 22 22 21 20 19 19 20 21 22 23 23 23 22 23 23 22 22 21 21 22 22 23 22 22 22 23 22 21 22 22 22 20 19 19 19 18 18 18 17 18 20 22 23 27 30 28 29 33 34 32 30 28 27 28 29 28
15 16 17 17 18 20 21 22 22 22 23 22 21 20 21 22 23 23 21 20 20 21 20 19 19 20 21 22 23 23 23 24 24 23 22 21 21 20 19 19 19 19 18 17 16 16 17 18 19 19 21 23 22 21 23 25 26 27 28 29 29 30 30
10 10 10 12 15 17 19 21 22 23 25 25 25 25 25 25 24 23 22 21 22 22 21 20 20 20 21 22 22 23 23 23 23 23 22 21 20 19 19 19 19 18 17 17 16 16 17 17 16 17 17 15 16 18 19 20 24 27 29 30 31 31 32
9 8 7 8 10 13 17 20 22 23 24 25 25 25 26 27 26 23 22 22 23 23 22 21 20 20 19 19 20 22 21 19 20 21 21 20 19 20 19 19 19 18 17 17 16 14 14 13 12 12 12 11 13 17 18 18 22 24 25 27 29 30 33
11 10 9 9 10 11 13 15 18 18 20 22 23 23 23 24 24 24 23 23 23 23 21 20 19 19 17 17 18 20 20 18 19 21 21 20 19 18 17 16 18 18 18 17 16 14 13 12 11 10 10 9 9 12 16 19 21 20 20 23 24 25 28
11 12 13 13 13 12 13 15 16 16 16 18 19 19 18 18 19 20 20 20 19 19 18 17 17 16 16 15 16 17 18 17 18 18 19 21 21 19 16 16 17 18 18 18 18 17 16 15 14 13 13 12 10 8 12 16 18 18 19 20 19 20 21
11 12 13 14 13 12 13 15 16 16 16 16 16 16 15 15 14 14 14 14 14 14 14 14 15 14 14 14 13 13 14 15 15 15 16 20 21 20 17 17 17 16 16 16 17 18 18 19 18 18 17 17 15 13 12 13 14 16 17 18 18 18 18
10 10 11 12 12 11 11 12 14 16 16 16 16 16 15 14 14 14 13 12 12 12 12 14 15 14 14 14 13 12 13 13 13 13 14 16 18 17 16 15 12 11 13 14 14 14 15 14 14 15 15 15 14 12 10 10 11 13 13 14 15 15 14
9 9 9 11 11 11 11 12 13 14 15 15 15 15 15 15 16 16 15 13 11 10 9 10 10 10 11 13 14 13 14 13 12 13 14 14 14 13 13 12 11 11 12 12 11 12 12 10 10 11 11 10 9 8 8 9 10 10 10 11 12 12 12
9 8 9 10 11 12 13 13 12 12 12 12 12 13 14 15 16 17 17 16 13 9 6 6 5 5 7 11 13 14 14 14 12 13 15 14 13 12 12 12 12 12 12 12 12 12 12 11 12 12 11 10 10 10 11 11 12 12 12 13 14 14 15
10 9 10 11 13 14 15 16 15 13 12 11 12 12 13 14 14 14 15 16 15 12 9 7 6 6 5 7 11 14 14 12 12 13 15 16 16 15 16 16 15 15 15 15 15 15 15 15 15 15 14 13 14 14 15 15 16 16 17 17 18 19 19
13 13 13 13 15 17 18 18 18 17 17 16 16 16 15 15 15 14 14 15 15 14 13 10 8 9 9 8 8 10 11 11 10 10 13 15 16 17 18 19 19 19 19 19 19 19 19 19 19 19 19 18 18 19 20 20 20 21 21 21 22 22 23

ECMWFFLT1_700_spd_117.txt.gz
Wind_Speed
34 34 33 33 29 27 29 28 26 25 22 22 22 21 22 20 17 17 17 15 15 14 14 14 14 14 14 15 14 14 14 13 13 12 13 13 13 13 12 12 12 11 10 9 8 8 7 7 7 7 6 6 6 6 6 6 6 6 5 5 5 5 5
36 35 35 33 30 27 28 28 26 26 24 25 24 22 23 21 17 17 16 16 15 14 14 14 14 14 14 15 14 14 14 13 12 12 12 13 13 13 12 13 12 11 10 9 8 8 8 7 7 7 7 7 7 7 7 6 6 6 6 6 6 5 5
37 36 35 33 30 28 29 28 26 26 26 28 27 25 24 20 17 16 16 17 16 15 15 15 15 15 15 15 15 15 15 14 13 12 12 12 12 12 12 12 12 11 10 10 8 8 8 7 7 8 8 7 7 7 7 7 7 7 6 6 5 5 5
37 37 34 32 31 31 30 28 27 26 26 27 27 26 25 21 19 17 16 17 17 15 15 15 15 15 15 15 15 15 15 15 14 13 13 13 12 13 12 11 11 11 10 9 9 8 8 8 8 8 9 8 8 8 8 8 7 7 7 6 6 6 6
33 36 36 35 35 33 31 30 28 28 27 26 26 25 25 23 21 18 17 18 17 16 15 15 15 16 15 15 15 15 16 16 15 15 14 14 13 13 12 11 11 10 10 10 9 8 8 8 8 8 9 8 9 9 9 9 8 8 8 7 7 7 7
29 34 37 37 36 35 33 32 31 30 29 27 26 26 26 25 23 21 18 18 18 17 17 17 17 16 16 16 15 16 16 17 17 17 16 16 15 14 13 12 11 10 10 10 9 8 8 8 8 8 9 9 9 9 9 9 9 8 9 8 7 8 7
26 31 35 36 36 35 34 33 32 33 32 29 27 27 27 26 24 22 19 19 19 18 18 18 17 17 17 17 17 16 17 18 19 18 18 17 16 15 14 13 12 11 11 10 9 9 9 9 9 9 8 8 9 9 8 8 8 8 8 8 8 8 7
22 26 32 35 36 37 37 36 36 35 34 31 29 28 28 27 26 23 20 20 20 19 18 18 17 17 17 17 17 17 17 18 19 20 19 18 17 16 15 14 13 12 12 11 10 10 10 9 9 9 9 9 8 8 8 7 7 7 7 7 7 7 7
21 23 28 33 37 40 41 40 40 39 36 34 31 28 28 28 27 24 20 20 21 20 19 19 18 17 17 18 18 18 18 18 19 20 20 20 18 18 17 15 14 13 13 12 11 12 11 11 10 10 9 9 9 8 8 8 7 7 7 7 7 7 7
21 21 24 27 31 38 42 40 40 40 37 34 32 29 29 29 27 23 20 20 21 21 20 19 18 17 18 19 19 18 18 18 18 20 20 21 20 19 18 17 16 15 14 13 13 13 12 12 11 11 10 10 9 9 9 9 8 8 8 8 7 8 8
18 18 20 22 25 31 37 40 42 41 38 35 33 31 30 29 27 24 21 21 21 20 20 20 19 18 19 20 20 19 19 18 19 19 19 20 20 20 20 19 18 17 15 15 15 13 13 13 12 11 12 11 10 11 10 10 10 9 8 8 8 8 8
17 18 20 21 23 25 29 36 42 42 40 38 36 33 30 28 27 25 24 22 22 21 21 20 19 19 20 20 20 19 19 19 18 18 18 19 19 20 20 20 19 18 17 16 16 15 13 14 13 12 13 12 12 12 12 11 11 10 9 9 9 8 8
18 20 21 19 19 20 22 28 37 42 43 40 36 33 31 30 28 27 26 24 23 23 22 21 20 20 20 20 21 20 19 19 19 18 18 18 18 19 19 19 20 20 18 17 16 16 15 14 14 14 14 13 13 13 14 14 13 12 11 11 10 10 9
19 20 20 19 17 18 19 23 32 41 43 41 38 36 34 33 31 29 28 27 26 25 24 22 22 22 21 21 21 20 19 19 19 19 19 18 18 19 19 19 19 20 20 18 17 17 17 16 15 15 15 15 14 15 16 16 15 14 13 12 11 11 11
18 19 19 16 15 16 17 20 29 39 43 43 41 38 36 35 33 30 29 28 27 26 25 24 23 23 23 22 23 23 22 22 22 21 21 20 19 19 19 19 20 20 20 19 18 18 18 18 17 17 17 16 16 16 17 18 18 17 15 13 13 12 12
18 18 17 15 15 16 17 19 25 35 43 44 42 39 38 37 34 31 29 28 26 25 25 25 25 25 24 24 26 27 26 26 26 25 23 22 22 21 21 21 21 21 21 20 18 18 18 18 19 19 18 18 17 17 18 20 20 18 16 15 15 14 13
18 17 17 16 16 16 18 19 22 28 36 41 39 37 36 35 34 32 31 29 27 26 27 27 27 27 26 26 27 28 27 26 25 24 23 23 23 22 22 22 21 22 22 21 20 20 19 18 18 18 18 18 18 19 19 20 19 17 16 17 16 15 14
16 17 18 18 16 16 17 18 18 22 27 33 34 33 32 31 31 32 31 28 27 27 28 28 29 29 30 31 31 30 29 27 24 23 23 23 24 24 24 23 22 23 23 23 23 23 22 20 19 18 18 17 18 19 19 19 19 17 17 17 17 15 15
16 15 16 17 17 17 15 13 16 21 25 30 32 32 31 30 32 33 30 28 27 28 28 30 30 30 31 33 34 33 30 27 24 24 26 26 26 26 25 25 24 24 25 25 25 25 24 23 22 21 21 19 19 19 18 17 18 18 17 17 17 16 16
15 14 13 14 15 14 11 11 16 20 22 25 28 29 29 30 31 33 31 29 28 29 29 30 30 30 30 32 32 30 28 26 25 26 28 28 27 26 26 26 27 27 28 28 28 27 27 27 26 25 24 23 22 22 21 19 18 18 18 17 18 18 18
12 12 10 11 12 11 10 8 10 12 12 15 19 23 25 25 26 28 28 27 28 29 29 29 30 31 32 32 31 29 28 27 26 25 27 29 29 29 28 29 30 31 31 31 31 31 31 31 30 29 28 27 26 26 26 23 21 21 20 19 19 19 18
8 9 8 8 10 12 12 10 8 9 11 13 15 17 19 19 21 22 23 24 26 27 25 24 26 31 34 36 34 32 31 30 29 28 28 29 30 30 30 31 31 32 32 33 33 34 35 34 34 33 32 31 29 29 29 27 26 24 22 21 22 21 20
7 7 6 6 8 11 14 16 15 15 16 16 16 16 16 16 16 18 19 21 22 21 21 22 24 28 32 35 36 34 34 33 33 32 30 29 29 29 29 30 31 31 32 33 34 36 37 37 37 37 37 36 35 34 33 32 31 29 26 24 25 24 22
8 7 8 8 8 8 12 17 20 20 20 20 20 20 20 18 16 16 19 21 23 23 23 23 25 26 27 29 32 32 33 34 33 31 29 28 28 28 28 29 30 30 31 31 32 33 35 36 36 37 38 39 39 39 39 37 35 33 31 29 28 27 26
6 7 8 9 10 10 10 10 11 12 13 15 17 18 21 23 23 22 23 25 27 27 26 25 25 26 25 25 26 27 29 31 30 28 27 27 27 27 28 27 27 27 27 28 29 30 30 30 31 32 33 35 37 38 38 37 35 34 34 33 32 31 29
5 6 7 8 10 11 11 11 10 10 10 12 13 14 16 19 22 23 24 26 26 26 25 25 25 25 24 24 25 25 26 27 26 25 24 24 25 26 26 25 24 24 24 24 25 26 25 25 24 24 25 28 31 32 34 34 33 34 35 36 36 36 33
7 7 8 9 10 12 12 12 12 12 11 12 14 15 15 16 18 20 22 24 25 25 25 26 25 24 24 24 25 26 26 25 24 24 23 23 23 24 23 22 23 23 24 23 23 23 22 21 21 21 21 22 23 26 29 29 30 31 34 37 40 39 35
8 8 8 8 8 9 10 11 11 12 13 13 13 15 17 17 18 20 21 23 24 24 24 25 25 24 23 22 23 24 24 24 23 22 22 22 22 23 23 21 21 22 23 23 23 22 22 21 20 19 19 20 21 23 26 27 27 26 28 33 36 36 34
6 6 6 6 5 5 6 7 9 10 12 13 15 16 18 19 19 20 21 22 22 22 23 23 23 23 22 21 21 21 22 23 23 22 22 23 23 23 21 19 20 22 22 23 23 22 21 19 18 18 17 18 20 22 23 24 23 19 21 25 28 29 32
3 4 5 5 5 5 5 6 7 8 9 12 14 16 18 20 20 19 20 21 21 21 22 22 23 24 23 21 20 20 22 23 23 23 25 25 25 23 20 17 19 21 22 22 22 21 20 18 17 16 16 16 17 18 19 20 20 16 15 18 19 21 27
4 5 6 6 6 7 7 8 9 9 10 11 13 14 16 18 19 19 20 20 21 22 22 23 25 26 26 23 22 22 23 22 21 22 23 24 24 24 22 20 18 20 21 21 20 20 18 17 16 15 13 12 11 10 11 15 17 15 14 14 15 18 22
6 6 7 7 7 7 7 8 9 11 12 12 13 14 16 18 18 19 19 19 20 21 22 24 25 26 25 24 24 25 25 23 22 21 21 22 22 22 22 21 20 21 21 22 23 21 17 15 16 15 12 9 7 6 6 11 15 15 15 16 17 18 19
4 5 5 5 5 5 5 6 7 9 10 11 12 13 14 16 17 17 18 18 18 19 20 21 23 24 24 23 24 26 26 24 23 22 21 21 21 19 19 20 22 23 22 20 20 19 17 16 16 15 12 9 8 7 6 9 13 15 16 18 18 18 17
2 2 2 2 2 2 3 4 5 7 8 9 9 10 11 13 14 15 15 16 16 16 17 18 20 21 22 22 22 22 23 21 19 17 18 19 20 19 19 19 21 24 22 19 17 18 18 17 15 13 12 10 10 10 10 10 12 15 16 17 18 18 17
4 4 3 3 3 3 3 4 5 6 6 7 8 8 10 11 12 13 14 15 16 16 16 17 18 18 19 21 21 19 18 17 15 13 14 16 17 17 17 17 18 20 21 19 19 18 17 14 13 12 12 12 12 12 13 14 15 16 17 17 17 17 17
7 7 6 5 5 5 5 6 7 7 7 7 7 8 9 10 11 11 12 12 13 14 14 14 14 15 16 17 19 19 17 16 14 13 13 13 14 13 13 13 14 15 16 16 16 16 13 11 11 11 11 12 12 12 13 14 15 15 16 15 15 14 14
9 9 9 8 7 7 8 8 9 9 9 9 9 9 10 12 13 13 13 12 12 12 11 10 10 12 13 13 14 16 17 16 16 15 14 14 15 15 13 11 11 12 14 14 15 14 11 10 10 11 11 11 12 12 12 13 13 14 14 13 14 14 13
9 10 10 10 10 10 10 10 10 11 12 13 13 13 14 15 16 16 15 15 14 12 11 10 10 11 12 12 11 11 11 12 14 15 14 14 15 15 14 12 12 13 14 15 15 14 12 11 12 13 13 13 13 13 13 14 14 14 15 15 15 16 16

ECMWFFLT1_700_spd_123.txt.gz
Wind_Speed
42 40 39 37 34 33 30 27 25 23 22 20 19 19 19 20 21 22 21 20 20 19 20 20 20 18 16 15 15 14 15 15 15 15 15 15 15 15 14 13 12 11 11 10 10 10 10 9 9 9 9 9 8 8 8 8 8 8 9 9 9 9 9
45 43 41 39 36 34 31 28 26 24 24 22 20 20 21 21 22 23 22 20 19 19 20 20 20 19 17 16 16 15 15 15 16 16 16 16 17 16 15 14 13 12 12 12 11 11 10 9 9 9 9 9 9 9 8 8 8 9 9 9 10 10 10
48 46 44 40 37 35 33 30 28 26 25 23 22 22 22 22 21 22 22 21 19 20 20 20 19 19 18 18 17 16 16 16 16 16 16 16 16 16 16 15 14 14 13 13 12 11 10 10 10 10 10 10 10 10 10 9 9 9 10 10 11 10 10
50 48 45 41 38 36 35 32 29 28 27 25 23 22 22 22 20 20 22 22 20 20 20 19 18 18 19 18 18 17 17 16 17 17 17 16 16 16 17 16 15 15 14 13 13 12 11 11 11 10 10 10 10 10 10 10 10 10 10 11 11 11 11
49 49 45 43 41 38 37 35 31 30 28 26 25 23 22 21 20 20 22 23 22 21 20 19 18 19 19 19 18 18 18 17 17 18 18 17 17 17 17 16 15 15 14 13 13 13 12 11 11 11 10 10 10 10 10 10 11 11 11 11 12 12 11
43 46 44 42 42 40 38 36 34 32 29 27 26 24 23 22 21 21 22 24 24 23 22 21 20 20 20 19 19 18 19 19 19 19 19 18 18 18 17 16 15 15 15 15 14 13 12 12 12 11 11 11 11 11 11 11 11 11 12 12 12 12 12
36 42 42 40 40 40 39 37 36 35 32 29 27 26 25 24 22 21 22 24 25 23 23 22 22 21 20 20 19 19 19 20 20 20 20 19 18 18 17 16 16 15 16 16 15 14 13 12 12 11 12 12 12 12 12 12 12 12 12 12 12 12 13
31 38 40 38 37 39 39 38 38 37 36 33 31 29 28 26 24 23 23 24 24 24 23 23 22 21 21 20 20 20 20 20 20 21 21 20 19 18 18 17 16 16 16 15 14 13 13 12 12 12 12 12 12 12 12 12 12 12 12 12 12 13 13
28 36 39 38 37 37 39 40 40 40 39 36 34 32 30 29 27 26 25 25 24 25 24 23 22 22 21 21 20 20 20 21 21 22 22 22 20 19 18 18 18 17 16 14 13 14 13 13 13 13 13 12 12 12 12 11 12 12 11 12 12 13 13
25 32 37 38 38 38 41 45 46 45 43 41 38 35 33 31 29 27 27 26 26 26 25 23 23 23 22 22 21 21 21 22 22 23 23 23 21 20 19 19 19 18 16 15 15 14 14 14 14 14 13 13 12 12 11 11 11 11 11 12 12 12 13
19 27 33 37 39 38 39 45 49 47 44 44 44 42 39 36 33 30 29 28 27 26 25 25 24 24 24 23 22 22 23 23 23 24 24 23 22 21 21 20 20 19 18 17 16 16 15 16 15 15 14 13 13 13 12 12 12 12 12 13 13 13 13
15 18 25 32 38 40 41 45 48 45 42 41 42 43 43 40 37 35 34 34 32 30 28 27 26 26 24 24 24 23 23 23 24 24 24 23 23 23 22 21 21 20 19 18 18 17 17 17 16 15 15 14 14 14 14 14 13 13 13 13 13 13 13
14 14 17 21 27 33 37 41 45 45 43 41 39 38 39 38 36 35 37 38 35 33 31 29 29 28 26 25 25 24 24 24 24 24 24 24 23 23 24 23 22 21 20 19 19 18 18 18 17 16 15 16 16 16 15 15 15 15 15 14 14 14 14
11 11 12 13 16 20 24 27 32 37 38 39 40 38 37 37 36 37 39 40 36 32 30 27 28 29 28 27 27 26 25 25 25 25 25 24 24 24 24 25 24 23 22 21 20 20 19 19 18 17 17 17 17 17 17 17 17 16 16 15 15 15 15
7 8 9 9 11 13 14 16 20 22 24 29 35 37 37 38 38 38 41 42 38 35 31 27 26 28 29 29 29 28 27 27 27 26 26 25 25 25 25 25 26 25 24 23 23 22 21 20 19 19 19 19 19 19 18 17 17 17 17 17 16 16 16
4 5 7 7 8 10 12 13 13 13 14 18 25 31 34 36 38 39 40 40 39 37 35 30 28 28 29 29 29 29 28 28 28 27 26 26 25 25 25 25 26 26 26 25 24 24 23 22 22 22 21 20 20 20 19 18 18 18 18 18 18 18 19
5 2 4 5 6 7 9 10 11 10 10 13 17 22 26 30 34 38 39 39 39 38 37 34 30 28 28 27 28 29 28 28 28 28 28 28 27 27 26 26 26 26 25 25 24 23 23 23 23 23 22 22 21 21 20 18 18 18 18 19 20 20 21
7 5 2 3 4 4 6 8 9 9 9 11 13 16 20 24 27 31 34 37 38 37 37 35 29 26 27 25 26 27 27 27 28 29 29 30 29 28 27 27 27 26 25 24 23 22 23 23 23 22 22 22 22 21 20 19 19 19 19 20 20 21 21
8 7 4 1 1 2 3 4 6 7 8 8 8 11 15 17 20 21 24 30 35 36 37 35 29 28 28 25 24 26 27 27 27 28 29 30 30 29 27 26 26 26 26 25 24 23 23 22 22 22 22 22 21 21 20 19 19 20 20 21 21 21 21
7 6 5 4 2 1 0 1 2 4 5 5 6 7 10 13 14 14 17 23 29 33 35 34 31 30 28 25 24 25 23 23 23 25 28 30 29 28 28 26 24 25 25 24 23 22 23 22 21 21 21 21 21 21 21 21 21 21 21 21 22 23 23
4 5 5 5 4 3 1 2 2 1 2 4 5 7 9 11 11 10 13 19 24 27 30 31 30 28 26 25 25 23 21 22 22 23 27 28 28 29 28 26 25 25 24 24 23 22 23 23 22 22 22 22 23 23 23 23 23 23 22 22 23 24 25
2 2 4 5 5 4 2 1 2 1 2 3 4 5 6 8 8 7 8 14 20 25 27 27 26 26 25 25 23 22 24 26 25 24 26 27 27 28 28 27 25 23 24 26 26 23 22 24 24 24 25 24 24 25 25 25 25 25 25 25 25 25 26
1 1 2 3 4 5 3 1 1 2 3 2 4 6 3 2 5 6 6 8 13 19 22 23 24 25 25 24 22 22 23 25 23 22 22 23 24 26 27 28 26 23 25 29 28 24 22 24 26 26 27 27 27 27 27 27 28 28 28 28 28 28 28
0 1 1 1 2 3 3 2 0 2 3 3 2 4 4 3 2 1 3 5 8 12 15 18 21 22 22 22 24 25 24 24 23 21 20 23 26 26 26 26 25 24 27 29 28 25 24 25 26 27 28 30 30 30 30 31 32 33 32 32 32 32 31
1 2 2 2 2 1 1 2 1 1 1 1 0 2 4 5 7 5 1 4 7 8 10 13 16 18 20 21 23 23 23 23 22 22 24 27 29 28 26 26 26 25 25 26 27 27 27 28 29 28 29 31 32 34 35 36 36 36 36 36 36 36 35
2 1 1 2 2 2 2 1 1 1 1 1 2 3 3 6 8 8 6 5 5 5 6 8 9 11 15 18 17 18 18 18 18 20 21 23 25 25 25 26 27 27 27 27 28 30 32 33 33 31 30 31 33 35 37 38 37 37 38 39 39 39 39
4 3 2 2 2 2 3 3 3 3 3 3 4 4 4 4 7 8 9 9 7 7 7 6 5 7 12 15 15 15 16 16 16 17 18 18 20 23 24 24 25 27 28 30 31 32 33 34 33 32 31 31 33 35 36 37 37 38 39 41 41 41 42
7 6 5 3 3 4 4 4 4 4 4 4 5 5 5 5 4 5 7 9 11 12 12 11 11 13 15 15 15 15 17 17 15 14 16 18 18 19 20 21 22 24 25 27 28 29 28 28 29 29 30 31 32 32 32 33 35 36 37 39 40 42 43
6 6 6 5 4 5 6 6 6 5 5 5 5 5 6 6 5 5 6 7 9 11 13 14 15 16 16 16 15 15 16 15 12 10 12 15 17 18 19 20 22 23 24 25 26 26 26 26 27 28 29 30 30 29 30 30 30 31 32 34 36 38 39
6 5 5 5 5 5 6 6 7 7 7 6 5 5 6 6 6 6 6 6 7 8 10 12 13 14 15 15 15 14 14 14 12 10 11 12 14 17 19 20 22 24 24 25 25 25 25 26 26 27 28 28 29 28 28 27 27 27 28 30 31 32 34
6 6 6 6 6 5 5 6 7 7 7 7 6 4 4 3 4 3 3 4 5 6 8 10 11 12 14 15 15 15 14 14 14 14 14 14 14 15 15 17 19 21 22 24 25 25 25 25 25 25 25 27 29 29 28 26 26 26 27 28 29 29 31
6 6 7 6 6 6 4 4 5 6 6 6 5 4 3 2 2 1 1 1 1 2 4 6 8 9 11 13 14 14 14 15 15 15 15 15 15 15 15 15 16 17 18 20 21 20 21 21 22 22 22 23 26 29 29 27 26 25 25 26 27 28 30
5 6 6 6 5 4 3 2 2 3 4 4 3 3 3 2 2 1 1 1 1 2 3 4 5 6 7 8 9 11 12 13 14 13 14 14 14 14 14 14 14 14 15 17 17 16 17 18 20 22 23 23 24 26 27 27 26 25 25 25 25 26 26
5 6 6 5 4 4 3 1 1 2 3 3 3 2 1 1 1 1 1 1 1 2 3 4 5 5 6 6 7 8 10 11 11 12 12 12 13 13 13 13 14 14 14 15 16 17 18 18 18 19 20 22 23 24 25 26 26 26 24 23 23 22 21
6 6 6 6 5 5 4 3 2 2 2 3 3 2 2 1 1 1 1 1 1 1 2 3 3 4 5 6 6 6 8 9 10 11 12 12 12 12 12 14 16 17 18 18 18 18 17 15 14 14 15 17 19 22 23 24 24 24 24 23 21 20 19
8 7 7 7 7 7 6 5 4 3 3 3 3 3 3 3 3 3 2 3 3 4 5 4 3 3 4 6 6 6 6 6 8 9 11 12 12 13 13 13 15 16 19 20 21 20 19 16 13 13 14 15 16 16 18 20 22 23 24 23 22 20 19
8 8 8 8 9 9 8 8 6 5 5 4 4 5 5 5 5 6 6 6 7 7 8 8 6 5 4 6 7 7 7 7 8 9 10 11 12 13 14 14 14 15 16 18 20 22 22 21 19 18 18 18 17 16 17 19 20 22 23 24 23 21 20
9 9 9 9 9 9 9 10 9 9 8 7 7 7 7 8 9 9 10 10 10 10 10 10 9 7 6 6 8 9 9 9 10 10 11 12 12 13 13 14 15 15 15 15 16 19 22 24 24 25 25 24 23 22 22 22 23 23 25 26 26 25 23